Find Starlink 32673

NORAD ID: 63000 Int'l Des: 2025-031 Owner: SPXS Country: US Constellation: starlink operational
LEOCIRCULAR

Current View

Loading 3D Globe...

About Starlink 32673

Starlink 32673 (NORAD 63000) is a starlink constellation satellite (v2 mini) launched Feb 11, 2025 by SPXS of US. It operates in LEO, CIRCULAR orbit with a mass of 730.00 kg.

About Starlink 32673

Description loading...

Upcoming Passes

Passes for default location (London). Set your location on the main map for personalized predictions.

Altitude History

Loading altitude history...

Two-Line Element Set

1 63000U 25031V 26170.62404393 .00017448 00000-0 64173-3 0 9995
2 63000 43.0010 287.7626 0000902 258.2019 101.8732 15.27597609 76685
Epoch: Jun 19, 2026 • Age: 18 hours

Current Status

Altitude 483.7 km
Velocity 7.63 km/s
Sub-Earth Point 29.03°N, 26.3°E
Launch Date Feb 11, 2025
Age 1.3 years
Type internet

Technical Details

Classification Payload
Mass 730.00 kg
Dry Mass 700.00 kg
Total Mass 730.00 kg
Length 0.30 m
Diameter 4.10 m
Span 29.00 m
Shape Box + pan
Manufacturer SPXS
Bus Type Starlink V2M
Phase Status In Orbit
Owner/State SPXS/US

Most Searched